AUA190Y EDDM-LOWW

Flight info

Callsign AUA190Y
Flight time 0h 58m
Altitude 23000
Route KIRDI3S KIRDI DCT BUWOQ DCT MASUR MASUR3W
Aircraft A320/M-SDE3FGHIRWY/LB1

Departure

Time 2026-05-05 14:46
Airport Munich Airport (EDDM)

Arrival

Time 2026-05-05 15:44
Airport Vienna International Airport (LOWW)
Time Latitude Longitude Altitude Speed Heading
2026-05-05 14:21 48.35710 11.79961 1471 ft 0 kts 263°
2026-05-05 14:37 48.35710 11.79965 1485 ft 3 kts 263°
2026-05-05 14:37 48.35713 11.80004 1480 ft 4 kts 263°
2026-05-05 14:37 48.35714 11.80023 1474 ft 4 kts 265°
2026-05-05 14:38 48.35712 11.80061 1475 ft 4 kts 302°
2026-05-05 14:38 48.35694 11.80081 1479 ft 3 kts 353°
2026-05-05 14:38 48.35676 11.80085 1483 ft 0 kts 353°
2026-05-05 14:40 48.35704 11.80080 1483 ft 9 kts 353°
2026-05-05 14:41 48.35781 11.80066 1480 ft 11 kts 353°
2026-05-05 14:41 48.35828 11.79998 1483 ft 11 kts 271°
2026-05-05 14:41 48.35820 11.79876 1485 ft 13 kts 264°
2026-05-05 14:41 48.35808 11.79720 1485 ft 17 kts 263°
2026-05-05 14:42 48.35794 11.79562 1483 ft 10 kts 248°
2026-05-05 14:42 48.35732 11.79542 1478 ft 9 kts 173°
2026-05-05 14:42 48.35674 11.79552 1475 ft 8 kts 173°
2026-05-05 14:42 48.35600 11.79564 1485 ft 17 kts 173°
2026-05-05 14:43 48.35466 11.79588 1473 ft 20 kts 173°
2026-05-05 14:43 48.35321 11.79613 1483 ft 22 kts 173°
2026-05-05 14:43 48.35167 11.79640 1482 ft 23 kts 173°
2026-05-05 14:43 48.35003 11.79668 1485 ft 24 kts 173°
2026-05-05 14:44 48.34830 11.79698 1485 ft 26 kts 173°
2026-05-05 14:44 48.34704 11.79697 1483 ft 14 kts 214°
2026-05-05 14:44 48.34642 11.79579 1481 ft 15 kts 233°
2026-05-05 14:44 48.34576 11.79445 1479 ft 17 kts 233°
2026-05-05 14:45 48.34497 11.79284 1478 ft 21 kts 233°
2026-05-05 14:45 48.34392 11.79086 1475 ft 27 kts 234°
2026-05-05 14:45 48.34343 11.78672 1485 ft 69 kts 263°
2026-05-05 14:45 48.34262 11.77620 1475 ft 131 kts 263°
2026-05-05 14:46 48.34144 11.76049 1709 ft 160 kts 264°
2026-05-05 14:46 48.34024 11.74407 2510 ft 156 kts 264°
2026-05-05 14:46 48.33900 11.72784 3252 ft 158 kts 261°
2026-05-05 14:46 48.33393 11.71252 3631 ft 180 kts 218°
2026-05-05 14:47 48.32147 11.70670 3982 ft 203 kts 186°
2026-05-05 14:47 48.30667 11.70591 4300 ft 223 kts 182°
2026-05-05 14:47 48.29077 11.70736 4931 ft 232 kts 166°
2026-05-05 14:47 48.27629 11.71824 5786 ft 238 kts 145°
2026-05-05 14:48 48.26217 11.73346 6178 ft 262 kts 147°
2026-05-05 14:48 48.24667 11.74947 6766 ft 276 kts 147°
2026-05-05 14:48 48.23057 11.76579 7600 ft 280 kts 148°
2026-05-05 14:48 48.21439 11.78212 8534 ft 282 kts 148°
2026-05-05 14:49 48.19905 11.80072 9401 ft 288 kts 133°
2026-05-05 14:49 48.18819 11.82615 10241 ft 294 kts 114°
2026-05-05 14:49 48.18327 11.85637 10804 ft 312 kts 94°
2026-05-05 14:49 48.18372 11.89007 11093 ft 334 kts 89°
2026-05-05 14:50 48.18476 11.92550 11661 ft 345 kts 89°
2026-05-05 14:50 48.18596 11.96168 12382 ft 350 kts 89°
2026-05-05 14:50 48.18716 11.99827 13132 ft 354 kts 89°
2026-05-05 14:50 48.18833 12.03527 13836 ft 358 kts 89°
2026-05-05 14:51 48.18944 12.07267 14435 ft 363 kts 90°
2026-05-05 14:51 48.19051 12.11078 15047 ft 367 kts 90°
2026-05-05 14:51 48.19155 12.14918 15704 ft 371 kts 90°
2026-05-05 14:51 48.19257 12.18800 16367 ft 375 kts 90°
2026-05-05 14:52 48.19359 12.22720 17027 ft 378 kts 90°
2026-05-05 14:52 48.19463 12.26678 17664 ft 382 kts 90°
2026-05-05 14:52 48.19567 12.30672 18259 ft 385 kts 90°
2026-05-05 14:52 48.19671 12.34699 18818 ft 389 kts 91°
2026-05-05 14:53 48.19774 12.38769 19351 ft 392 kts 91°
2026-05-05 14:53 48.19874 12.42864 19884 ft 395 kts 91°
2026-05-05 14:53 48.19972 12.46995 20414 ft 398 kts 91°
2026-05-05 14:53 48.20071 12.51156 20935 ft 401 kts 91°
2026-05-05 14:54 48.20170 12.55341 21469 ft 404 kts 91°
2026-05-05 14:54 48.20271 12.59570 21990 ft 407 kts 91°
2026-05-05 14:54 48.20372 12.63790 22278 ft 408 kts 91°
2026-05-05 14:54 48.20472 12.68075 22547 ft 410 kts 91°
2026-05-05 14:55 48.20569 12.72352 22729 ft 411 kts 92°
2026-05-05 14:55 48.20659 12.76604 22766 ft 405 kts 92°
2026-05-05 14:55 48.20745 12.80818 22763 ft 404 kts 92°
2026-05-05 14:55 48.20828 12.85022 22764 ft 403 kts 92°
2026-05-05 14:56 48.20900 12.89228 22764 ft 403 kts 92°
2026-05-05 14:56 48.20962 12.93368 22738 ft 403 kts 92°
2026-05-05 14:56 48.21016 12.97578 22759 ft 406 kts 92°
2026-05-05 14:56 48.21069 13.01817 22758 ft 407 kts 92°
2026-05-05 14:57 48.21123 13.06057 22753 ft 407 kts 92°
2026-05-05 14:57 48.21180 13.10298 22756 ft 407 kts 92°
2026-05-05 14:57 48.21238 13.14548 22756 ft 407 kts 92°
2026-05-05 14:57 48.21292 13.18788 22755 ft 407 kts 92°
2026-05-05 14:58 48.21345 13.23034 22761 ft 407 kts 92°
2026-05-05 14:58 48.21397 13.27274 22761 ft 407 kts 92°
2026-05-05 14:58 48.21447 13.31521 22754 ft 407 kts 92°
2026-05-05 14:58 48.21495 13.35767 22754 ft 407 kts 92°
2026-05-05 14:59 48.21542 13.40006 22742 ft 407 kts 91°
2026-05-05 14:59 48.21928 13.44217 22750 ft 410 kts 79°
2026-05-05 14:59 48.22597 13.48379 22749 ft 410 kts 79°
2026-05-05 14:59 48.23275 13.52533 22751 ft 410 kts 79°
2026-05-05 15:00 48.23957 13.56686 22752 ft 410 kts 79°
2026-05-05 15:00 48.24409 13.59441 22751 ft 410 kts 79°
2026-05-05 15:00 48.25315 13.64998 22753 ft 410 kts 79°
2026-05-05 15:00 48.25990 13.69159 22753 ft 410 kts 79°
2026-05-05 15:01 48.26662 13.73306 22747 ft 410 kts 79°
2026-05-05 15:01 48.27322 13.77408 22743 ft 410 kts 79°
2026-05-05 15:01 48.27987 13.81569 22741 ft 410 kts 79°
2026-05-05 15:01 48.28649 13.85723 22727 ft 410 kts 79°
2026-05-05 15:02 48.29312 13.89883 22740 ft 409 kts 79°
2026-05-05 15:02 48.29974 13.94029 22750 ft 408 kts 79°
2026-05-05 15:02 48.30633 13.98179 22752 ft 408 kts 79°
2026-05-05 15:02 48.31278 14.02325 22752 ft 407 kts 79°
2026-05-05 15:03 48.31910 14.06465 22767 ft 407 kts 79°
2026-05-05 15:03 48.32537 14.10612 22769 ft 407 kts 79°
2026-05-05 15:03 48.33162 14.14756 22766 ft 407 kts 79°
2026-05-05 15:03 48.33788 14.18897 22764 ft 407 kts 79°
2026-05-05 15:04 48.34415 14.23045 22761 ft 407 kts 79°
2026-05-05 15:04 48.35042 14.27186 22761 ft 406 kts 79°
2026-05-05 15:04 48.35668 14.31328 22757 ft 406 kts 79°
2026-05-05 15:04 48.36282 14.35410 22743 ft 406 kts 79°
2026-05-05 15:05 48.37522 14.43735 22745 ft 405 kts 79°
2026-05-05 15:05 48.38138 14.47869 22742 ft 405 kts 79°
2026-05-05 15:05 48.38745 14.51947 22746 ft 405 kts 79°
2026-05-05 15:06 48.39367 14.56127 22750 ft 404 kts 79°
2026-05-05 15:06 48.39980 14.60257 22750 ft 404 kts 79°
2026-05-05 15:06 48.40586 14.64356 22751 ft 404 kts 79°
2026-05-05 15:06 48.41193 14.68479 22758 ft 404 kts 79°
2026-05-05 15:07 48.41799 14.72597 22760 ft 403 kts 79°
2026-05-05 15:07 48.42404 14.76719 22759 ft 403 kts 79°
2026-05-05 15:07 48.43000 14.80799 22681 ft 393 kts 79°
2026-05-05 15:07 48.43579 14.84772 22305 ft 386 kts 79°
2026-05-05 15:08 48.44147 14.88697 21853 ft 382 kts 79°
2026-05-05 15:08 48.44710 14.92591 21373 ft 379 kts 79°
2026-05-05 15:08 48.45269 14.96467 20902 ft 377 kts 79°
2026-05-05 15:08 48.45822 15.00300 20438 ft 375 kts 79°
2026-05-05 15:09 48.46369 15.04095 19989 ft 373 kts 79°
2026-05-05 15:09 48.46922 15.07957 19538 ft 371 kts 79°
2026-05-05 15:09 48.47464 15.11753 19112 ft 369 kts 79°
2026-05-05 15:09 48.48004 15.15526 18683 ft 368 kts 79°
2026-05-05 15:10 48.48543 15.19288 18261 ft 366 kts 79°
2026-05-05 15:10 48.49069 15.22977 17821 ft 364 kts 79°
2026-05-05 15:10 48.49596 15.26702 17354 ft 362 kts 79°
2026-05-05 15:10 48.50119 15.30401 16923 ft 360 kts 79°
2026-05-05 15:11 48.50637 15.34080 16504 ft 357 kts 79°
2026-05-05 15:11 48.51148 15.37728 16099 ft 354 kts 79°
2026-05-05 15:11 48.51652 15.41351 15706 ft 352 kts 80°
2026-05-05 15:11 48.51901 15.44994 15323 ft 347 kts 91°
2026-05-05 15:12 48.51751 15.48611 14938 ft 344 kts 96°
2026-05-05 15:12 48.51547 15.52195 14555 ft 343 kts 96°
2026-05-05 15:12 48.51345 15.55764 14189 ft 341 kts 96°
2026-05-05 15:12 48.51140 15.59312 13827 ft 338 kts 96°
2026-05-05 15:13 48.50939 15.62838 13443 ft 337 kts 96°
2026-05-05 15:13 48.50735 15.66346 13050 ft 334 kts 96°
2026-05-05 15:13 48.50528 15.69823 12665 ft 332 kts 96°
2026-05-05 15:13 48.50330 15.73271 12268 ft 330 kts 96°
2026-05-05 15:14 48.50144 15.76651 11868 ft 328 kts 96°
2026-05-05 15:14 48.49953 15.80129 11484 ft 326 kts 97°
2026-05-05 15:14 48.49772 15.83526 11084 ft 324 kts 96°
2026-05-05 15:14 48.49604 15.86866 10921 ft 315 kts 96°
2026-05-05 15:15 48.49443 15.90096 10723 ft 302 kts 96°
2026-05-05 15:15 48.49288 15.93244 10332 ft 300 kts 96°
2026-05-05 15:15 48.49142 15.96361 10006 ft 297 kts 96°
2026-05-05 15:15 48.48998 15.99459 9696 ft 295 kts 96°
2026-05-05 15:16 48.48856 16.02490 9364 ft 293 kts 96°
2026-05-05 15:16 48.48715 16.05537 9000 ft 291 kts 96°
2026-05-05 15:16 48.48579 16.08577 8617 ft 290 kts 96°
2026-05-05 15:16 48.48442 16.11597 8272 ft 288 kts 96°
2026-05-05 15:17 48.48306 16.14576 8061 ft 280 kts 96°
2026-05-05 15:17 48.48183 16.17449 7934 ft 270 kts 96°
2026-05-05 15:17 48.48085 16.20216 7741 ft 259 kts 98°
2026-05-05 15:17 48.48019 16.22919 7279 ft 257 kts 96°
2026-05-05 15:18 48.47962 16.25608 6939 ft 257 kts 97°
2026-05-05 15:18 48.47921 16.28292 6630 ft 256 kts 96°
2026-05-05 15:18 48.47887 16.30969 6326 ft 255 kts 97°
2026-05-05 15:18 48.47732 16.33583 6047 ft 245 kts 114°
2026-05-05 15:19 48.46938 16.35755 5726 ft 234 kts 133°
2026-05-05 15:19 48.45935 16.37672 5366 ft 232 kts 135°
2026-05-05 15:19 48.44918 16.39545 5060 ft 230 kts 135°
2026-05-05 15:19 48.43913 16.41388 4969 ft 227 kts 135°
2026-05-05 15:20 48.42905 16.43220 4990 ft 227 kts 136°
2026-05-05 15:20 48.41799 16.44868 4994 ft 220 kts 152°
2026-05-05 15:20 48.40400 16.45721 5000 ft 218 kts 167°
2026-05-05 15:20 48.38933 16.46343 4998 ft 220 kts 167°
2026-05-05 15:21 48.37461 16.46970 4991 ft 220 kts 167°
2026-05-05 15:21 48.35992 16.47598 4993 ft 219 kts 167°
2026-05-05 15:21 48.34524 16.48226 4968 ft 220 kts 167°
2026-05-05 15:21 48.33059 16.48851 4784 ft 217 kts 167°
2026-05-05 15:22 48.31625 16.49462 4558 ft 212 kts 167°
2026-05-05 15:22 48.30236 16.50058 4214 ft 201 kts 167°
2026-05-05 15:22 48.28939 16.50612 3947 ft 189 kts 167°
2026-05-05 15:22 48.27686 16.51147 3707 ft 187 kts 168°
2026-05-05 15:23 48.26443 16.51677 3451 ft 184 kts 167°
2026-05-05 15:23 48.25258 16.52181 3202 ft 169 kts 168°
2026-05-05 15:23 48.24166 16.52646 3032 ft 160 kts 167°
2026-05-05 15:23 48.23111 16.53095 2802 ft 156 kts 167°
2026-05-05 15:24 48.22065 16.53536 2621 ft 157 kts 168°
2026-05-05 15:24 48.21018 16.53978 2410 ft 154 kts 168°
2026-05-05 15:24 48.20344 16.54266 2255 ft 150 kts 168°
2026-05-05 15:24 48.19389 16.54674 2090 ft 137 kts 169°
2026-05-05 15:25 48.18192 16.55181 1825 ft 132 kts 169°
2026-05-05 15:25 48.17309 16.55558 1650 ft 132 kts 169°
2026-05-05 15:25 48.16426 16.55932 1503 ft 131 kts 170°
2026-05-05 15:25 48.15543 16.56306 1343 ft 132 kts 169°
2026-05-05 15:26 48.14936 16.56564 1217 ft 137 kts 169°
2026-05-05 15:26 48.14014 16.56956 1041 ft 135 kts 169°
2026-05-05 15:26 48.13137 16.57330 851 ft 130 kts 170°
2026-05-05 15:26 48.12261 16.57696 724 ft 136 kts 168°
2026-05-05 15:27 48.11385 16.58071 625 ft 121 kts 169°
2026-05-05 15:27 48.10619 16.58397 693 ft 123 kts 169°
2026-05-05 15:27 48.09727 16.58747 1384 ft 139 kts 168°
2026-05-05 15:27 48.08783 16.59143 2368 ft 141 kts 169°
2026-05-05 15:28 48.07800 16.59570 2919 ft 155 kts 169°
2026-05-05 15:28 48.06712 16.60068 3203 ft 178 kts 161°
2026-05-05 15:28 48.05742 16.61443 3533 ft 212 kts 124°
2026-05-05 15:28 48.05457 16.63699 4106 ft 235 kts 91°
2026-05-05 15:29 48.05876 16.66222 4515 ft 265 kts 77°
2026-05-05 15:29 48.06503 16.68953 4911 ft 289 kts 75°
2026-05-05 15:29 48.07497 16.71616 4996 ft 300 kts 50°
2026-05-05 15:29 48.09157 16.73440 5005 ft 301 kts 23°
2026-05-05 15:30 48.11213 16.74040 5006 ft 300 kts 355°
2026-05-05 15:30 48.13282 16.73626 5007 ft 300 kts 346°
2026-05-05 15:30 48.15331 16.73046 5007 ft 300 kts 346°
2026-05-05 15:30 48.17377 16.72442 5007 ft 300 kts 346°
2026-05-05 15:31 48.19421 16.71830 5010 ft 300 kts 346°
2026-05-05 15:31 48.21466 16.71222 5008 ft 300 kts 346°
2026-05-05 15:31 48.23513 16.70610 5008 ft 300 kts 346°
2026-05-05 15:31 48.25523 16.70002 5008 ft 299 kts 345°
2026-05-05 15:32 48.27563 16.69387 5006 ft 295 kts 346°
2026-05-05 15:32 48.29512 16.68810 5000 ft 277 kts 345°
2026-05-05 15:32 48.31362 16.68275 5002 ft 268 kts 346°
2026-05-05 15:32 48.33195 16.67733 5003 ft 268 kts 346°
2026-05-05 15:33 48.35024 16.67185 5004 ft 269 kts 346°
2026-05-05 15:33 48.36858 16.66635 5003 ft 269 kts 346°
2026-05-05 15:33 48.38691 16.66084 5001 ft 269 kts 345°
2026-05-05 15:33 48.40530 16.65533 5001 ft 270 kts 345°
2026-05-05 15:34 48.42367 16.64990 4998 ft 268 kts 346°
2026-05-05 15:34 48.44117 16.64159 4998 ft 260 kts 323°
2026-05-05 15:34 48.45355 16.62325 4998 ft 245 kts 291°
2026-05-05 15:34 48.45771 16.59954 5004 ft 231 kts 263°
2026-05-05 15:35 48.45641 16.57552 4991 ft 230 kts 256°
2026-05-05 15:35 48.45423 16.55159 4988 ft 231 kts 256°
2026-05-05 15:35 48.45191 16.52770 4982 ft 230 kts 255°
2026-05-05 15:35 48.44945 16.50399 4980 ft 228 kts 249°
2026-05-05 15:36 48.44184 16.48420 4989 ft 216 kts 218°
2026-05-05 15:36 48.42881 16.47375 4986 ft 213 kts 198°
2026-05-05 15:36 48.41463 16.46688 4983 ft 214 kts 195°
2026-05-05 15:36 48.40016 16.46170 4992 ft 212 kts 183°
2026-05-05 15:37 48.38608 16.46474 4992 ft 200 kts 167°
2026-05-05 15:37 48.37287 16.47044 4986 ft 196 kts 168°
2026-05-05 15:37 48.36018 16.47590 4991 ft 183 kts 168°
2026-05-05 15:37 48.34855 16.48089 4997 ft 167 kts 168°
2026-05-05 15:38 48.33754 16.48558 4876 ft 163 kts 168°
2026-05-05 15:38 48.32668 16.49021 4698 ft 161 kts 168°
2026-05-05 15:38 48.31596 16.49477 4516 ft 160 kts 169°
2026-05-05 15:38 48.30529 16.49929 4299 ft 159 kts 168°
2026-05-05 15:39 48.29466 16.50383 4099 ft 159 kts 168°
2026-05-05 15:39 48.28397 16.50840 3884 ft 159 kts 168°
2026-05-05 15:39 48.27331 16.51295 3675 ft 159 kts 169°
2026-05-05 15:39 48.26279 16.51742 3456 ft 159 kts 169°
2026-05-05 15:40 48.25218 16.52193 3231 ft 157 kts 169°
2026-05-05 15:40 48.24181 16.52635 3026 ft 154 kts 168°
2026-05-05 15:40 48.23163 16.53072 2823 ft 151 kts 168°
2026-05-05 15:40 48.22157 16.53498 2627 ft 149 kts 167°
2026-05-05 15:41 48.21150 16.53923 2426 ft 152 kts 167°
2026-05-05 15:41 48.20147 16.54348 2282 ft 147 kts 167°
2026-05-05 15:41 48.19192 16.54755 2040 ft 138 kts 166°
2026-05-05 15:41 48.18283 16.55142 1843 ft 134 kts 167°
2026-05-05 15:42 48.17386 16.55521 1686 ft 134 kts 166°
2026-05-05 15:42 48.16489 16.55900 1529 ft 134 kts 167°
2026-05-05 15:42 48.15587 16.56283 1340 ft 136 kts 168°
2026-05-05 15:42 48.14696 16.56664 1192 ft 131 kts 166°
2026-05-05 15:43 48.13824 16.57033 1014 ft 129 kts 166°
2026-05-05 15:43 48.12967 16.57397 846 ft 126 kts 166°
2026-05-05 15:43 48.12122 16.57754 680 ft 126 kts 165°
2026-05-05 15:43 48.11323 16.58097 615 ft 108 kts 165°
2026-05-05 15:44 48.10742 16.58340 615 ft 62 kts 164°
2026-05-05 15:44 48.10436 16.58461 621 ft 36 kts 171°
2026-05-05 15:44 48.10238 16.58440 609 ft 17 kts 194°
2026-05-05 15:44 48.10139 16.58394 610 ft 14 kts 210°
2026-05-05 15:45 48.10147 16.58313 616 ft 10 kts 340°
2026-05-05 15:45 48.10223 16.58281 618 ft 13 kts 345°
2026-05-05 15:45 48.10313 16.58243 621 ft 14 kts 344°
2026-05-05 15:45 48.10406 16.58202 611 ft 14 kts 343°
2026-05-05 15:46 48.10505 16.58162 614 ft 15 kts 344°
2026-05-05 15:46 48.10602 16.58120 622 ft 14 kts 344°
2026-05-05 15:46 48.10695 16.58081 621 ft 13 kts 344°
2026-05-05 15:46 48.10783 16.58044 620 ft 13 kts 344°
2026-05-05 15:47 48.10878 16.58004 616 ft 15 kts 343°
2026-05-05 15:47 48.10943 16.57975 613 ft 15 kts 343°
2026-05-05 15:47 48.11070 16.57923 623 ft 14 kts 343°
2026-05-05 15:47 48.11172 16.57879 624 ft 16 kts 345°
2026-05-05 15:48 48.11282 16.57833 615 ft 17 kts 344°
2026-05-05 15:48 48.11390 16.57788 625 ft 16 kts 344°
2026-05-05 15:48 48.11490 16.57744 619 ft 15 kts 343°
2026-05-05 15:48 48.11591 16.57703 619 ft 15 kts 344°
2026-05-05 15:49 48.11691 16.57660 610 ft 14 kts 344°
2026-05-05 15:49 48.11786 16.57620 613 ft 14 kts 344°
2026-05-05 15:49 48.11830 16.57523 610 ft 12 kts 258°
2026-05-05 15:49 48.11809 16.57404 610 ft 12 kts 256°
2026-05-05 15:50 48.11829 16.57291 619 ft 11 kts 296°
2026-05-05 15:50 48.11853 16.57193 610 ft 9 kts 270°
2026-05-05 15:50 48.11866 16.57105 619 ft 8 kts 291°
2026-05-05 15:50 48.11890 16.57034 624 ft 8 kts 296°
2026-05-05 15:51 48.11915 16.56959 615 ft 8 kts 296°
2026-05-05 15:51 48.11940 16.56882 620 ft 8 kts 296°
2026-05-05 15:51 48.11964 16.56806 612 ft 9 kts 296°
2026-05-05 15:51 48.11989 16.56714 610 ft 9 kts 264°
2026-05-05 15:52 48.11944 16.56667 610 ft 6 kts 207°
2026-05-05 15:52 48.11933 16.56659 622 ft 0 kts 206°